Home   Weather   Mountain View   Past weeks

Flag for USA Past Weather in Mountain View, California, USA — Yesterday and Last 2 Weeks

Now
50 °F

Sunny.


Feels Like: 48 °F
Forecast: 45 / 54 °F
Wind: 5 mph from West

Location: Moffett Field

Current Time: Feb 22, 2017 at 9:34:09 am

Latest Report: Feb 22, 2017 at 8:56 am


Visibility: 10 mi

Pressure: 30.30 "Hg

Humidity: 80%

Dew Point: 44 °F

Location of Mountain ViewLocation

Past Weather in Mountain View — Graph

°F

Mountain View Temperature Yesterday

Maximum temperature yesterday: 60 °F (at 1:56 pm)
Minimum temperature yesterday: 48 °F (at 9:56 pm)
Average temperature yesterday: 54 °F

High & Low Weather Summary for the Past Weeks

 TemperatureHumidityPressure
High70 °F (Feb 15, 3:56 pm)100% (Feb 13, 7:56 am)30.28 "Hg (Feb 13, 7:56 am)
Low42 °F (Feb 12, 3:56 am)31% (Feb 15, 5:56 pm)29.16 "Hg (Feb 17, 4:56 pm)
Average56 °F80%29.98 "Hg
* Reported Feb 7 7:56 am — Feb 22 7:56 am, Mountain View, Weather by CustomWeather, © 2017

Note: Actual official high and low records may vary slightly from our data, if they occured in-between our weather recording intervals... More about our weather records

Advertising

Mountain View Weather History for the Previous 24 Hours

Scroll right to see more
 ConditionsComfort  
Time TempWeatherWind HumidityBarometerVisibility
7:56 am
Wed, Feb 22
47 °FSunny.5 mph86%30.28 "Hg10 mi
6:56 am45 °FSunny.No wind93%30.27 "Hg10 mi
5:56 am42 °FClear.No wind100%30.28 "Hg10 mi
4:56 am45 °FPassing clouds.No wind93%30.28 "Hg10 mi
3:56 am44 °FMostly cloudy.No wind100%30.27 "Hg10 mi
2:56 am44 °FClear.No wind100%30.27 "Hg10 mi
1:56 am45 °FPassing clouds.No wind100%30.28 "Hg10 mi
12:56 am46 °FClear.3 mph96%30.28 "Hg10 mi
11:56 pm
Tue, Feb 21
48 °FPassing clouds.No wind96%30.28 "Hg10 mi
11:35 pm49 °FPartly cloudy.No wind93%30.27 "Hg10 mi
10:56 pm48 °FPassing clouds.No wind96%30.27 "Hg10 mi
9:56 pm48 °FClear.No wind96%30.27 "Hg10 mi
8:56 pm50 °FLight rain. Mostly cloudy.No wind96%30.26 "Hg10 mi
8:25 pm50 °FLight rain. Fog.3 mph96%30.25 "Hg5 mi
7:56 pm51 °FLight rain. Overcast.5 mph96%30.25 "Hg8 mi
6:56 pm51 °FLight rain. Overcast.3 mph96%30.23 "Hg8 mi
6:17 pm54 °FMostly cloudy.7 mph83%30.21 "Hg10 mi
5:56 pm54 °FPartly cloudy.7 mph83%30.20 "Hg10 mi
4:56 pm57 °FBroken clouds.5 mph69%30.19 "Hg10 mi
3:56 pm58 °FPartly sunny.7 mph67%30.20 "Hg10 mi
2:56 pm60 °FMostly cloudy.7 mph56%30.19 "Hg10 mi
1:56 pm60 °FMostly cloudy.9 mph60%30.20 "Hg10 mi
12:56 pm59 °FMore clouds than sun.7 mph72%30.21 "Hg10 mi
11:56 am57 °FMostly cloudy.6 mph78%30.24 "Hg10 mi
10:56 am56 °FLight rain. More clouds than sun.6 mph81%30.24 "Hg10 mi
9:56 am59 °FBroken clouds.No wind64%30.23 "Hg10 mi
Weather by CustomWeather, © 2017

See weather overviewHow to use our weather pages